"Pseudo-MPEC" for C1FPAM5

Created 2026 Aug 21 10:35:04 UT using Find_Orb

Click here for an explanation of pseudo-MPECs

 
 Astrometry: 
     C1FPAM5*1C2026 08 21.36303123 48 10.969+14 12 20.59   ~8L9Z 20.93GVNEOCPV00
     C1FPAM5 1C2026 08 21.36802023 48 10.933+14 12 23.15   ~8L9Z 21.08GVNEOCPV00
     C1FPAM5 1C2026 08 21.37297923 48 10.904+14 12 25.56   ~8L9Z 21.17GVNEOCPV00
     C1FPAM5 1C2026 08 21.37793723 48 10.883+14 12 28.04   ~8L9Z 21.01GVNEOCPV00

Station data:
(V00) Kitt Peak-Bok  (N31.963125 W111.600190)  US/Arizona. Measurers T.
   Beuden, V. F. Carvajal, D. Fay, J. B. Fazekas, D. C. Fuls, A. R. Gibbs, A.
   D. Grauer, H. Gröller, J. K. Hogan, R. A. Kowalski, S. M. Larson, G. J.
   Leonard, D. Rankin, R. L. Seaman, F. C. Shelly, K. W. Wierzchoś. 2.25-m
   reflector + 4x4K mosaic CCD.

Orbital elements:  C1FPAM5
   Perihelion 2026 Nov 30.178657 +/- 55.5 TT =  4:17:15.9 (JD 2461374.678657)
Epoch 2026 Aug 21.0 TT = JDT 2461273.5   Earth MOID: 0.0182   Ve: 0.0611
M 324.159007896 +/- 31              Ma: 0.0202                   AutoNEOCP
n   0.354234709 +/- 0.35            Peri.  245.167104 +/- 100
a   1.978223274 +/- 1.3             Node   207.286158 +/- 54
e   0.63506025 +/- 0.254            Incl.    7.706408 +/- 9
P   2.78236                H 20.33  G  0.15   U 12.0  SR
q 0.721932291 +/- 0.663    Q 3.234514256 +/- 56.9         (J2000 ecliptic)
From 4 observations 2026 Aug. 21 (21.5 min); mean residual 0".04
Residuals in arcseconds: 
260821 V00  .05+  .03-    260821 V00  .06-  .02-    
260821 V00  .05-  .04+    260821 V00  .06+  .00     

Ephemerides (geocentric):
Date (UTC) HH   RA             Dec           delta  r     elong  mag " sig PA
---- --------  ------------   ------------  ------ ------ -----  --- --------
2026 08 21 11  23 48 10.780   +14 13 12.20  .61427 1.5452 142.6 21.3 89.5 128
2026 08 21 12  23 48 10.747   +14 13 32.85  .61371 1.5448 142.6 21.3  136 116
2026 08 21 13  23 48 10.711   +14 13 53.49  .61314 1.5444 142.6 21.3  198 110
2026 08 21 14  23 48 10.671   +14 14 14.11  .61257 1.5440 142.7 21.3  279 106
2026 08 21 15  23 48 10.627   +14 14 34.73  .61200 1.5436 142.7 21.3  389 104
2026 08 21 16  23 48 10.580   +14 14 55.33  .61144 1.5432 142.7 21.3  549 102
2026 08 21 17  23 48 10.529   +14 15 15.91  .61087 1.5428 142.8 21.3  800 101
2026 08 21 18  23 48 10.474   +14 15 36.49  .61031 1.5424 142.8 21.3 1258 100
2026 08 21 19  23 48 10.416   +14 15 57.05  .60974 1.5420 142.8 21.3 2352  99
2026 08 21 20  23 48 10.353   +14 16 17.60  .60917 1.5417 142.9 21.3 8198  96
2026 08 21 21  23 48 10.287   +14 16 38.14  .60861 1.5413 142.9 21.3 975'  81
2026 08 21 22  23 48 10.218   +14 16 58.67  .60804 1.5409 142.9 21.3  17d  81
2026 08 21 23  23 48 10.144   +14 17 19.18  .60748 1.5405 143.0 21.3  18d  99
2026 08 22 00  23 48 10.067   +14 17 39.68  .60691 1.5401 143.0 21.3  17d  99
2026 08 22 01  23 48 09.986   +14 18 00.17  .60635 1.5397 143.0 21.3  17d 100
2026 08 22 02  23 48 09.901   +14 18 20.64  .60578 1.5393 143.1 21.3  17d 100
2026 08 22 03  23 48 09.813   +14 18 41.11  .60522 1.5389 143.1 21.3  17d 100
2026 08 22 04  23 48 09.721   +14 19 01.56  .60465 1.5385 143.1 21.3  17d 100
2026 08 22 05  23 48 09.625   +14 19 22.00  .60409 1.5382 143.2 21.3  17d 100
2026 08 22 06  23 48 09.525   +14 19 42.42  .60353 1.5378 143.2 21.3  17d 100
2026 08 22 07  23 48 09.422   +14 20 02.83  .60296 1.5374 143.2 21.3  17d 100
2026 08 22 08  23 48 09.314   +14 20 23.23  .60240 1.5370 143.3 21.3  17d 100
2026 08 22 09  23 48 09.203   +14 20 43.62  .60184 1.5366 143.3 21.3  17d 100
2026 08 22 10  23 48 09.088   +14 21 03.99  .60127 1.5362 143.3 21.3  18d 100
2026 08 22 11  23 48 08.970   +14 21 24.35  .60071 1.5358 143.4 21.3  22d  92
2026 08 22 12  23 48 08.847   +14 21 44.70  .60015 1.5354 143.4 21.2  24d  91
2026 08 22 13  23 48 08.721   +14 22 05.04  .59959 1.5350 143.4 21.2  24d  90
2026 08 22 14  23 48 08.591   +14 22 25.36  .59902 1.5346 143.5 21.2  24d  90
2026 08 22 15  23 48 08.457   +14 22 45.67  .59846 1.5343 143.5 21.2  24d  90
2026 08 22 16  23 48 08.319   +14 23 05.97  .59790 1.5339 143.5 21.2  24d  90
2026 08 22 17  23 48 08.178   +14 23 26.25  .59734 1.5335 143.5 21.2  24d  90
2026 08 22 18  23 48 08.032   +14 23 46.52  .59678 1.5331 143.6 21.2  24d  90
2026 08 22 19  23 48 07.883   +14 24 06.78  .59622 1.5327 143.6 21.2  24d  90
2026 08 22 20  23 48 07.730   +14 24 27.03  .59566 1.5323 143.6 21.2  24d  90
2026 08 22 21  23 48 07.573   +14 24 47.26  .59510 1.5319 143.7 21.2  24d  90
2026 08 22 22  23 48 07.412   +14 25 07.48  .59454 1.5315 143.7 21.2  24d  90
2026 08 22 23  23 48 07.248   +14 25 27.68  .59398 1.5311 143.7 21.2  24d  90
2026 08 23 00  23 48 07.079   +14 25 47.88  .59342 1.5307 143.8 21.2  24d  90
2026 08 23 01  23 48 06.907   +14 26 08.06  .59286 1.5303 143.8 21.2  24d  90
2026 08 23 02  23 48 06.731   +14 26 28.22  .59230 1.5300 143.8 21.2  24d  90
2026 08 23 03  23 48 06.551   +14 26 48.38  .59174 1.5296 143.9 21.2  24d  90
2026 08 23 04  23 48 06.367   +14 27 08.52  .59118 1.5292 143.9 21.2  24d  90
2026 08 23 05  23 48 06.179   +14 27 28.64  .59062 1.5288 143.9 21.2  24d  90
2026 08 23 06  23 48 05.987   +14 27 48.76  .59006 1.5284 144.0 21.2  24d  90
2026 08 23 07  23 48 05.792   +14 28 08.86  .58950 1.5280 144.0 21.2  25d  91
2026 08 23 08  23 48 05.592   +14 28 28.94  .58894 1.5276 144.0 21.2  28d  89
2026 08 23 09  23 48 05.389   +14 28 49.02  .58838 1.5272 144.1 21.2  29d  88
2026 08 23 10  23 48 05.181   +14 29 09.08  .58783 1.5268 144.1 21.2  29d  87